Regional Weather Roundup
Issued by NWS Northern Indiana

Home | Current Version | Previous Version | Text Only | Print | Product List | Glossary Off
Versions: 1 2 3 4 5 6 7 8 9 10 11 12 13 14 15 16 17 18 19 20 21 22 23 24 25 26 27 28 29 30 31 32 33 34 35 36 37 38 39 40 41 42 43 44 45 46 47 48 49 50

000
ASUS43 KIWX 180400
RWRIWX

KIWX WEATHER ROUNDUP
NATIONAL WEATHER SERVICE NORTHERN INDIANA
1200 AM EDT FRI APR 18 2014

NOTE: "FAIR" INDICATES FEW OR NO CLOUDS BELOW 12,000 FEET WITH NO
SIGNIFICANT WEATHER AND/OR OBSTRUCTIONS TO VISIBILITY.

* THESE STATIONS ARE NOT UNDER NWS QUALITY CONTROL. THEY ALSO MAY NOT
  REPORT WEATHER SUCH AS PRECIPITATION OR FOG.

INZ001>027-180500-
NORTHERN INDIANA

CITY           SKY/WX    TMP DP  RH WIND       PRES   REMARKS
GARY*          CLOUDY    55  39  54 W6        30.25S
VALPARAISO     CLOUDY    52  38  58 W3        30.24F
LAPORTE*       CLOUDY    52  39  61 W3        30.24F
SOUTH BEND     CLOUDY    52  37  56 CALM      30.25F
GOSHEN         MOCLDY    52  40  63 CALM      30.24S
MONTICELLO*    CLOUDY    51  40  66 CALM      30.25S
ANGOLA*        CLOUDY    48  39  71 CALM      30.24S
FORT WAYNE     CLOUDY    50  37  61 S6        30.26S
PERU/GRISSOM   CLOUDY    51  42  71 S5        30.25S

$$
INZ028>050-180500-
CENTRAL INDIANA

CITY           SKY/WX    TMP DP  RH WIND       PRES   REMARKS
LAFAYETTE      CLOUDY    52  39  61 CALM      30.26R
KOKOMO*        CLOUDY    54  37  54 SW7       30.25S
MUNCIE*        MOCLDY    53  35  50 S3        30.26S
INDIANAPOLIS   MOCLDY    52  36  54 SE7       30.28R

$$
MIZ043>046-050>051-056>058-064>065-071>073-077>080-180500-
SOUTHWEST LOWER MICHIGAN

CITY           SKY/WX    TMP DP  RH WIND       PRES   REMARKS
BATTLE CREEK   MOCLDY    50  37  61 CALM      30.24F
BENTON HARBOR  CLOUDY    47  37  68 NE3       30.24F
COLDWATER*     CLOUDY    51  35  54 CALM      30.24S
HILLSDALE*     CLOUDY    56  33  43 S5        30.24S
HOLLAND        CLOUDY    45  38  76 CALM      30.25F
GRAND RAPIDS   CLOUDY    49  37  63 W3        30.24F
KALAMAZOO      MOCLDY    50  37  61 CALM      30.24S
STURGIS*       MOCLDY    50  37  62 CALM      30.24S
THREE RIVERS*  FAIR      49  38  66 CALM      30.24S

$$
OHZ001>008-015>018-024>025-180500-
NORTHWEST OHIO

CITY           SKY/WX    TMP DP  RH WIND       PRES   REMARKS
DEFIANCE       CLOUDY    53  34  48 CALM      30.25S
FINDLAY        MOCLDY    52  37  56 S8        30.26S
TOLEDO EXPRESS MOCLDY    50  36  58 S3        30.25F
TOLEDO METCALF PTCLDY    51  36  56 S6        30.26F
LIMA             N/A     51  38  60 SE8       30.26

$$
&&



USA.gov is the U.S. government's official web portal to all federal, state and local government web resources and services.